Theta_e
290 291 292 290 290 292 290 290 286 288 289 292 295 296 299 303 306 306 307 309 312 316 329 335 336 337 340 340 342 342 340 340 341 342 342 341 339 339 339 340 338 336 335 333
288 291 291 289 292 292 292 292 291 291 290 297 299 300 301 303 304 304 306 308 310 315 329 334 334 333 339 339 339 340 337 337 340 338 337 337 338 339 340 338 338 334 334 332
283 289 289 285 290 291 291 294 293 289 294 299 298 299 301 304 305 306 307 308 310 315 321 333 332 334 334 335 336 338 337 336 335 335 335 336 338 337 337 339 336 335 337 336
285 288 278 289 296 295 292 295 297 297 298 300 300 303 304 306 306 308 309 309 311 316 333 334 334 335 335 334 334 335 333 331 333 334 334 335 335 336 337 337 337 338 336 335
284 283 287 289 294 293 292 292 298 297 299 300 302 304 304 311 313 314 312 313 313 319 333 336 334 335 334 332 334 331 330 330 332 335 334 334 333 335 338 336 336 335 335 333
286 281 279 291 295 298 296 287 300 299 296 297 299 294 299 309 309 312 316 316 316 321 329 337 335 336 334 332 331 329 329 330 332 334 334 331 333 337 337 337 336 337 334 334
285 283 288 296 297 298 285 289 298 299 298 298 297 300 305 308 308 311 312 316 319 320 328 333 336 335 333 330 329 330 331 331 334 335 333 336 336 338 336 335 335 334 332 331
288 284 282 300 297 288 296 300 299 299 300 298 301 303 304 305 307 309 311 314 316 320 325 336 335 335 333 331 332 331 331 332 335 334 332 335 336 335 336 335 333 332 330 330
289 291 301 302 300 300 303 300 299 298 300 300 301 301 303 304 306 308 311 315 317 321 330 335 335 334 332 333 331 331 332 333 334 335 333 334 335 335 332 333 330 330 328 327
294 297 298 301 304 303 303 301 301 301 300 301 300 302 303 304 305 308 312 314 319 320 331 331 334 335 334 332 331 330 333 333 334 333 332 334 335 335 331 332 329 329 326 325
295 299 300 300 302 303 302 302 301 300 300 300 302 302 303 304 306 309 313 316 322 325 333 332 332 333 335 331 331 332 334 333 333 332 331 334 325 325 333 319 320 327 331 325
292 300 300 299 303 303 300 298 299 299 299 301 302 303 304 304 309 312 313 316 321 326 332 331 335 334 331 330 333 333 331 332 331 330 333 331 328 321 296 298 296 296 303 320
297 302 303 303 304 303 300 298 298 299 301 301 304 305 305 306 309 311 315 317 322 325 330 333 336 333 331 330 334 333 330 331 328 329 329 329 329 327 321 309 296 295 296 299
305 303 299 301 299 302 300 299 300 302 305 309 308 308 307 307 310 312 316 320 324 326 331 332 334 331 329 330 333 332 334 314 328 326 330 329 328 328 325 323 322 318 299 302
303 303 302 302 302 301 301 298 297 299 303 309 310 309 310 310 313 317 320 324 327 329 332 333 333 327 328 331 332 331 332 329 329 326 327 326 328 328 325 324 323 320 315 305
302 301 301 300 300 301 298 295 295 297 302 312 312 313 313 314 316 319 325 328 329 331 331 330 328 327 328 332 332 331 331 316 316 327 326 330 329 326 327 326 325 323 322 317
298 297 298 299 300 299 295 295 295 296 302 306 309 312 315 318 317 317 317 319 320 321 323 323 327 328 329 333 332 329 329 328 308 328 327 328 329 329 329 327 326 324 324 318
303 301 301 301 300 299 296 294 295 296 299 301 302 305 305 305 304 304 311 316 317 313 312 320 316 324 331 333 332 329 328 326 327 326 327 328 329 330 331 329 328 326 325 313
302 300 301 301 301 299 296 294 295 295 297 299 299 297 299 302 302 301 303 301 300 301 301 309 301 324 335 325 325 329 327 326 327 325 327 315 325 330 331 329 327 327 324 320
302 302 301 301 301 298 295 295 294 294 294 296 297 294 293 294 302 301 299 296 295 296 302 303 317 321 324 324 311 328 327 326 326 324 326 325 326 327 328 316 328 326 324 323
302 302 300 300 299 299 296 294 293 292 294 294 294 295 294 293 292 294 296 295 295 296 300 298 300 300 316 313 326 329 326 325 325 324 325 326 325 325 328 327 327 326 326 327
303 302 300 300 299 298 298 295 294 292 292 292 294 294 293 293 293 292 291 293 293 290 296 298 297 294 298 299 318 318 323 327 326 323 323 325 325 323 323 321 320 321 320 318
303 303 302 300 299 298 298 296 293 292 291 291 290 293 293 292 292 290 289 292 292 289 293 292 291 292 295 308 309 309 309 315 318 317 315 313 311 311 312 312 311 310 309 307
304 304 302 302 301 297 295 296 294 293 292 292 292 293 293 293 293 294 293 290 288 290 289 289 290 290 292 299 301 301 301 300 301 304 304 299 305 304 303 303 302 302 302 301
305 304 303 302 300 297 296 296 295 293 292 292 292 292 295 295 294 294 295 293 289 291 292 288 288 289 293 293 294 295 295 296 296 297 297 296 296 295 296 296 296 296 296 295
305 303 302 302 301 299 297 295 293 293 293 291 293 293 293 296 295 295 294 292 293 291 292 292 292 293 292 291 291 292 292 292 293 294 294 294 294 294 294 293 293 293 292 292
306 297 303 301 300 299 297 295 294 293 293 293 292 294 294 295 295 294 293 294 294 294 293 293 293 292 292 292 291 292 292 291 291 292 292 292 292 292 292 292 291 291 291 291
Wind_Speed
18 21 24 18 22 24 26 23 17 15 15 5 4 8 20 20 26 2 4 9 6 5 2 5 4 8 13 12 13 12 14 14 12 11 11 9 8 7 7 6 6 8 6 6
20 21 21 20 25 23 20 24 23 18 15 7 21 12 25 26 15 7 6 6 7 9 4 4 4 6 13 15 14 13 13 14 13 11 10 8 8 8 7 6 6 6 6 10
17 17 19 14 1 9 19 23 23 15 17 15 8 9 15 18 15 12 12 6 8 9 2 3 2 4 9 11 12 13 13 13 12 11 11 9 6 7 6 6 6 6 6 7
11 15 12 7 8 11 14 23 22 18 11 11 14 9 10 14 17 16 13 9 5 9 3 5 1 4 5 10 10 13 13 13 13 12 11 9 7 5 6 6 6 5 6 7
5 7 15 18 8 5 9 24 16 15 16 15 16 16 12 10 18 17 15 10 6 10 2 6 5 4 3 8 12 13 13 12 12 15 13 12 9 6 7 7 5 5 6 7
5 5 5 5 7 8 6 15 13 17 18 19 16 8 9 10 19 20 21 10 7 7 6 8 8 6 2 10 12 12 13 12 12 15 14 11 9 7 7 6 6 3 6 7
8 7 8 8 9 4 4 5 12 15 19 20 17 15 17 20 17 18 17 20 12 11 1 8 10 7 4 8 12 12 13 12 9 14 12 10 6 6 6 6 6 5 8 6
4 4 5 6 4 5 6 9 13 21 24 18 18 19 18 18 17 17 19 18 19 14 8 8 11 7 5 9 11 12 12 13 13 13 9 7 9 7 7 7 7 5 7 6
5 5 7 12 15 16 13 13 11 14 18 16 20 15 17 16 17 16 19 16 17 15 5 8 10 9 5 11 11 12 11 16 12 12 9 8 8 7 6 6 6 5 6 6
11 8 7 17 14 8 8 7 15 17 18 19 18 20 20 17 17 16 17 17 16 11 9 10 11 10 6 12 11 12 17 16 12 10 9 8 5 4 5 5 5 6 6 7
16 15 12 10 13 9 15 19 10 11 13 15 16 18 20 16 18 17 17 17 7 11 8 11 12 10 7 13 11 12 17 14 12 9 8 7 8 3 4 6 2 5 4 6
4 17 13 12 14 11 18 10 13 17 16 16 18 20 17 17 18 16 16 12 9 7 9 12 12 13 10 13 11 13 12 12 10 9 8 8 8 9 15 9 11 11 8 7
8 14 18 15 11 11 10 17 21 20 21 20 19 19 17 17 17 17 16 15 10 9 11 13 16 11 15 14 15 13 10 10 9 10 9 8 9 8 8 6 13 15 13 10
16 14 12 11 9 9 11 18 22 19 17 14 17 17 18 15 18 17 19 15 13 12 11 17 15 16 15 14 16 13 9 10 9 6 12 9 8 7 7 8 8 7 12 9
9 11 11 13 13 11 12 17 19 16 17 9 12 14 15 16 18 17 14 15 14 13 16 15 15 17 16 17 16 14 9 7 7 7 8 11 9 9 7 7 7 9 7 8
14 16 14 14 15 14 18 19 19 20 17 11 12 10 11 11 6 8 3 6 6 12 7 12 12 17 16 17 16 12 9 10 5 8 9 11 6 8 7 8 8 8 8 9
14 15 15 12 16 16 20 17 17 19 11 12 9 8 10 9 9 9 12 13 15 13 11 8 6 16 15 17 14 10 8 6 5 10 9 10 7 7 8 8 9 8 8 11
10 12 12 11 12 12 15 17 16 15 13 16 14 14 17 16 12 11 12 11 13 16 15 14 14 11 15 15 12 10 9 7 7 7 9 11 10 8 8 9 9 10 9 10
13 13 14 13 14 12 12 12 13 15 15 14 13 15 14 13 12 12 10 14 13 11 14 16 20 14 10 14 11 10 11 9 7 3 7 10 10 9 9 8 8 11 11 10
13 12 14 13 15 13 14 16 16 16 15 13 14 16 16 16 12 13 13 15 12 6 11 14 13 13 13 11 9 5 13 11 8 3 10 8 6 8 7 12 13 12 11 9
13 13 15 13 12 13 13 13 13 13 13 15 15 14 15 15 16 14 14 11 13 12 11 15 13 9 7 8 8 8 3 12 8 4 10 9 8 8 4 12 12 11 10 9
11 12 13 13 13 12 12 12 13 13 15 16 16 16 16 16 13 14 15 10 7 12 12 12 11 12 8 10 9 11 13 6 9 10 11 13 12 13 14 13 13 13 13 13
10 10 11 12 13 12 12 14 14 14 15 15 15 13 14 11 10 10 12 14 10 13 11 11 14 16 15 14 11 10 14 13 12 12 12 13 13 12 12 12 12 12 11 11
11 11 11 12 12 11 12 13 12 13 12 12 12 12 10 8 10 9 10 10 11 16 13 12 16 20 19 12 11 11 13 12 12 11 13 14 13 12 12 12 12 12 11 11
10 10 11 11 10 9 10 9 9 10 11 9 10 10 10 10 9 8 9 11 14 12 11 15 20 22 15 14 13 13 11 12 11 12 11 13 14 13 13 13 13 12 12 12
7 7 9 12 9 7 8 8 7 7 6 7 7 8 8 8 8 10 11 13 13 12 12 12 12 14 15 16 15 14 11 13 13 13 14 14 15 13 13 14 14 13 13 13
6 2 9 9 9 8 8 8 7 7 6 6 7 7 7 6 8 10 11 11 12 12 13 12 12 14 15 16 15 13 13 12 15 15 15 15 14 14 14 13 13 13 13 12
Wind_Direction
280 279 277 264 264 271 268 261 273 280 299 349 191 296 290 294 292 339 290 299 35 351 5 214 35 171 154 150 139 138 136 134 139 136 137 140 138 161 156 156 158 153 175 178
293 289 284 319 300 299 291 293 276 280 283 284 145 185 255 262 294 297 288 327 338 328 10 123 23 284 149 143 143 144 136 135 138 138 140 152 165 152 153 156 169 149 148 89
285 294 312 306 90 349 327 319 325 345 353 346 333 274 309 327 335 327 323 305 297 324 35 230 103 344 122 128 134 136 136 137 142 157 150 140 148 144 153 139 106 112 107 116
279 300 279 287 148 357 289 283 306 334 337 319 305 309 286 316 317 311 304 311 312 301 155 189 164 48 93 124 137 140 140 154 159 147 143 147 146 168 144 125 125 114 122 111
277 268 286 290 331 24 342 300 303 321 342 351 345 338 313 0 0 342 290 299 288 278 113 168 168 120 183 162 156 150 155 159 167 146 154 157 165 184 125 123 128 158 146 145
321 287 282 71 45 0 340 284 11 8 341 335 334 309 272 13 344 333 327 299 275 333 1 184 185 156 215 171 158 161 158 168 176 138 150 153 154 138 131 155 144 157 135 125
239 257 275 152 207 194 228 312 317 317 305 312 303 291 298 301 311 314 313 313 315 295 176 203 195 177 216 172 170 161 160 169 138 112 118 132 129 124 149 162 134 143 131 136
222 249 281 188 308 273 299 320 304 308 302 299 283 280 281 288 294 293 294 296 292 278 222 167 203 185 203 178 171 164 165 129 114 114 121 121 125 148 147 124 130 140 129 122
196 253 300 343 287 222 249 304 303 295 285 280 280 276 275 278 289 279 282 283 280 281 196 163 178 196 204 166 180 159 137 120 123 118 116 126 141 143 136 136 145 149 161 143
292 245 274 284 303 327 331 278 280 274 268 270 268 268 269 268 268 262 260 261 260 258 199 172 180 191 225 166 185 158 123 124 129 119 124 136 139 147 143 170 174 177 169 149
276 285 293 301 332 336 327 317 267 284 279 278 257 252 250 255 254 253 255 253 279 262 185 185 175 195 230 175 180 138 127 131 133 129 133 124 66 26 113 51 9 160 139 136
286 314 299 307 342 353 330 306 308 292 284 272 248 250 244 241 251 262 254 269 277 331 207 181 181 199 189 179 158 132 131 136 147 153 151 138 132 95 44 66 55 55 77 97
272 291 295 342 337 341 317 324 302 291 279 263 252 228 237 238 248 253 267 250 253 272 237 187 194 194 167 180 138 136 146 145 156 169 152 162 140 144 123 60 60 53 66 80
287 285 335 350 335 321 330 311 302 293 281 250 220 208 219 228 241 252 254 247 252 239 231 196 190 179 160 173 138 146 157 159 158 147 150 145 144 142 144 157 144 110 42 83
342 352 357 339 344 340 332 325 325 330 323 267 185 200 209 216 228 244 261 257 255 251 224 209 186 152 171 150 143 154 163 178 160 166 138 140 150 141 154 151 141 122 125 76
346 5 350 349 343 343 353 344 340 336 335 215 187 210 227 238 258 272 284 286 262 222 183 231 173 153 167 142 147 154 163 195 168 135 133 144 151 162 148 145 144 154 150 128
9 1 350 1 357 356 356 353 347 336 347 44 74 74 61 93 87 55 51 48 57 45 40 36 81 151 155 142 151 154 165 182 102 143 161 159 152 157 149 155 157 153 151 139
32 15 4 18 355 11 358 359 347 346 22 36 34 52 53 54 50 30 42 44 55 40 13 5 12 353 143 144 162 165 156 183 181 197 170 153 155 169 168 169 167 151 129 149
29 28 17 12 24 24 9 357 0 15 16 29 38 47 44 58 56 52 54 47 33 49 341 342 340 26 16 153 186 181 145 170 196 201 164 128 161 170 174 175 130 125 135 149
25 39 36 14 35 26 14 13 19 25 19 21 43 45 45 34 38 60 62 63 38 360 336 343 15 23 12 355 356 247 145 163 212 218 133 146 162 172 165 137 131 133 141 154
29 35 40 23 48 39 35 20 24 26 25 30 39 46 59 52 38 32 42 50 15 352 5 14 25 6 350 353 24 27 200 157 203 225 155 166 160 155 154 130 132 133 136 105
30 41 45 28 40 36 41 47 31 29 34 28 34 44 46 44 45 51 46 39 13 10 30 23 13 355 344 17 29 39 14 157 76 64 64 66 66 74 82 82 79 83 84 89
33 38 63 52 41 42 36 48 43 32 37 33 24 28 48 49 38 38 42 19 29 31 45 37 19 18 27 42 31 32 56 40 63 69 72 71 68 67 71 74 77 73 72 72
48 33 44 82 62 51 43 43 56 48 41 41 32 30 33 44 55 51 52 37 34 44 43 39 44 45 51 44 41 43 54 58 58 55 71 71 72 71 71 74 78 76 73 74
66 56 37 51 63 58 56 50 56 57 51 43 37 29 42 46 50 50 55 51 41 45 49 46 56 54 54 52 48 50 48 66 61 71 70 78 80 76 74 73 73 75 75 74
68 71 73 58 55 69 67 65 58 46 58 56 59 49 35 59 52 63 59 57 52 52 55 49 57 64 67 60 54 54 51 61 68 74 72 72 75 79 78 79 78 76 76 77
107 74 102 95 82 68 72 67 67 66 65 67 71 64 66 63 81 80 78 73 68 63 62 58 58 65 68 66 60 58 63 62 68 75 75 72 71 72 71 70 72 68 66 63